Regional Weather Roundup
Issued by NWS

Home | Current Version | Previous Version | Text Only | Print | Product List | Glossary Off
Versions: 1 2 3 4 5 6 7 8 9 10 11 12 13 14 15 16 17 18 19 20 21 22 23 24 25 26 27 28 29 30 31 32 33 34 35 36 37 38 39 40 41 42 43 44 45 46 47 48 49 50

000
ASUS43 KDTX 121001
RWRMI
MICHIGAN HOURLY REGIONAL WEATHER ROUNDUP
NATIONAL WEATHER SERVICE DETROIT/PONTIAC MI
500 AM EST FRI FEB 12 2016

NOTE: "FAIR" INDICATES FEW OR NO CLOUDS BELOW 12,000 FEET WITH NO
SIGNIFICANT WEATHER AND/OR OBSTRUCTION TO VISIBILITY.

MIZ047>049-052>055-059>063-066>070-074>076-081>083-121100-
SOUTHEAST LOWER MICHIGAN

CITY           SKY/WX    TMP DP  RH WIND       PRES   REMARKS
ADRIAN         CLOUDY    13   7  77 SW5       30.14F WCI   5
ALMA           CLOUDY    18  11  75 SW8       30.06F WCI   8
ANN ARBOR      PTCLDY     9   5  84 SW5       30.11F WCI   1
BAD AXE        CLOUDY    13   7  76 SW10      30.04F WCI   0
CARO           CLOUDY    10   5  79 S7        30.05F WCI   0
DETROIT CITY   CLEAR     13   5  70 SW8       30.13F WCI   2
DETROIT        PTCLDY    13   6  74 SW9       30.14F WCI   1
FLINT          CLOUDY    15   5  64 SW10      30.08F WCI   2
GROSSE ILE     PTCLDY    16   9  73 CALM      30.13F
HILLSDALE      CLOUDY    13   6  70 SW7       30.09F WCI   3
HOWELL         MOCLDY    11   6  79 SW6       30.07F WCI   2

CITY           SKY/WX    TMP DP  RH WIND       PRES   REMARKS
JACKSON        PTCLDY    14   5  67 SW8       30.09F WCI   3
LAMBERTVILLE   PTCLDY    14   8  77 SW5       30.16F WCI   6
LANSING        CLOUDY    15   7  70 SW9       30.08F WCI   3
LAPEER         CLOUDY    13   8  79 W8        30.07F WCI   1
MASON          CLOUDY    13   6  74 SW5       30.08F WCI   5
MONROE         CLOUDY    15   8  74 SW7       30.14F WCI   5
MT. CLEMENS    PTCLDY    13   7  78 SW8       30.10F WCI   1
PONTIAC        PTCLDY     9   5  84 SW5       30.07F WCI   1
PORT HOPE        N/A     13   6  74 SW13G20   30.01F WCI  -2
PORT HURON     CLOUDY     9   5  85 SW3       30.10F
TRI CITIES     CLOUDY    16   8  71 SW14      30.05F WCI   2
MIDLAND        CLOUDY    16   8  71 SW6       30.04F WCI   7
TROY           CLEAR     13   9  83 SW8       30.12F WCI   2
SAGINAW HB     CLOUDY    16  10  79 SW12      30.06F WCI   3
$$
MIZ043>046-050>051-056>058-064>065-071>073-077>080-121100-
SOUTHWEST LOWER MICHIGAN

CITY           SKY/WX    TMP DP  RH WIND       PRES   REMARKS
BATTLE CREEK   CLOUDY    15   6  67 SW12      30.09F WCI   2
BENTON HARBOR  CLOUDY    23   9  55 W15       30.13F WCI  10
BIG RAPIDS     CLOUDY    18   8  64 SW12      30.00F WCI   5
COLDWATER      CLOUDY    14   7  73 SW6       30.11F WCI   5
FREMONT        CLOUDY    20   6  54 SW5       30.04F WCI  13
HOLLAND        CLOUDY    23  11  60 W13       30.09F WCI  11
GRAND RAPIDS   CLOUDY    19  10  68 SW10      30.07F WCI   7
IONIA          CLOUDY    16   9  74 SW9       30.06F WCI   4
KALAMAZOO      CLOUDY    15   6  67 SW7       30.10F WCI   5
LUDINGTON      CLOUDY    20   9  61 NW10G17   30.05F WCI   9
MARSHALL       CLOUDY    14   7  72 SW7       30.09F WCI   4
MOUNT PLEASANT CLOUDY    18   9  68 SW7       30.02F WCI   9
MUSKEGON       CLOUDY    23   6  48 W16G23    30.07F WCI  10
SOUTH HAVEN    CLOUDY    23  11  59 W12G20    30.11F WCI  12
$$
MIZ016>042-121100-
NORTHERN LOWER MICHIGAN

CITY           SKY/WX    TMP DP  RH WIND       PRES   REMARKS
ALPENA         CLOUDY    15   6  67 SW8       29.94F WCI   4
BEAVER ISLAND  CLEAR     18   6  58 W14G25    29.95S WCI   4
BELLAIRE       LGT SNOW  20  11  69 W7        29.97F WCI  11
CADILLAC       FLURRIES  14   7  73 W6        29.95S WCI   5
CHARLEVOIX     CLOUDY    19   9  65 W21G28    29.98F WCI   3
FRANKFORT      CLOUDY    19   7  60 NW16G23   30.02F WCI   4
GAYLORD        LGT SNOW  15  11  83 W8        29.89F FOG     WCI   4
GRAYLING       FLURRIES  14   7  75 W5        29.94F WCI   6
HARBOR SPRINGS CLOUDY    19   6  58 W9G23     29.93F WCI   7
HOUGHTON LAKE  CLOUDY    13   6  74 SW9       29.96F WCI   1
MANISTEE       CLOUDY    19   7  58 NW18G25   30.03S WCI   4
OSCODA         CLOUDY    14   7  74 SW10      29.98F WCI   1
PELLSTON       CLOUDY    18   7  62 W14       29.92F WCI   4
ROGERS CITY    CLOUDY    14  10  84 SW10      29.92F WCI   1
TRAVERSE CITY  CLOUDY    19   7  59 W13       29.99F WCI   6
$$
MIZ007>008-015-121100-
EASTERN UPPER MICHIGAN

CITY           SKY/WX    TMP DP  RH WIND       PRES   REMARKS
KINROSS        PTCLDY    10   9  92 W10       29.87S WCI  -3
MACKINAC ISLAN CLOUDY    15   7  71 W21G30    29.90S WCI  -3
NEWBERRY       CLEAR      9   6  87 W15G21    29.89F WCI  -8
S. S. MARIE    LGT SNOW  14   9  80 N6        29.87R WCI   5
$$
MIZ004>006-011>014-085-121100-
CENTRAL UPPER MICHIGAN

CITY           SKY/WX    TMP DP  RH WIND       PRES   REMARKS
MANISTIQUE     CLEAR     10  -1  61 W14G20    29.96S WCI  -6
ESCANABA       PTCLDY    10  -2  56 W9        30.01S WCI  -2
MENOMINEE      CLOUDY    14  -2  48 W6        30.05S WCI   5
SAWYER-GWINN   LGT SNOW   4   1  86 W5        29.94S WCI  -5
$$
MIZ001>003-009>011-084-121100-
WESTERN UPPER MICHIGAN

CITY           SKY/WX    TMP DP  RH WIND       PRES   REMARKS
IRON MOUNTAIN  CLEAR     10  -2  58 W9        29.97F WCI  -3
HOUGHTON       LGT SNOW  11   6  81 NW17      29.95S WCI  -6
COPPER HARBOR    N/A     16  11  80 N28G37    29.96R WCI  -4
IRONWOOD       CLOUDY    10   5  79 W10       30.02S WCI  -3
$$

ABBREVIATIONS USED IN REMARKS
   TC - TEMPERATURE IN CELSIUS
  WCI - WIND CHILL INDEX
   HX - HEAT INDEX
  VSB - VISIBILITY




USA.gov is the U.S. government's official web portal to all federal, state and local government web resources and services.